| time (UTC) | temp C | wind direction | speed KPH | gust KPH | rain 1hr cm | rain 24hr cm | rain mn cm | humidity % | barometer mb |
| 20260510180008 | 13 | 290 | 4.8 | 11.3 | 0.00 | 0.69 | 0.00 | 51 | 981.5 |
| 20260510175508 | 13 | 330 | 6.4 | 11.3 | 0.00 | 0.69 | 0.00 | 47 | 981.5 |
| 20260510175007 | 13 | 305 | 6.4 | 11.3 | 0.00 | 0.69 | 0.00 | 49 | 981.3 |
| 20260510174507 | 13 | 2 | 4.8 | 11.3 | 0.00 | 0.69 | 0.00 | 51 | 981.3 |
| 20260510174007 | 12 | 262 | 4.8 | 11.3 | 0.00 | 0.69 | 0.00 | 51 | 981.3 |
| 20260510173507 | 12 | 303 | 8.0 | 11.3 | 0.00 | 0.69 | 0.00 | 52 | 981.1 |
| 20260510172507 | 14 | 313 | 4.8 | 9.7 | 0.00 | 0.69 | 0.00 | 56 | 981.2 |
| 20260510172007 | 13 | 218 | 8.0 | 9.7 | 0.00 | 0.69 | 0.00 | 53 | 981.2 |
| 20260510171507 | 13 | 307 | 3.2 | 8.0 | 0.00 | 0.69 | 0.00 | 55 | 981.2 |
| 20260510171008 | 12 | 338 | 4.8 | 8.0 | 0.00 | 0.69 | 0.00 | 55 | 981.3 |
| 20260510170008 | 13 | 159 | 4.8 | 16.1 | 0.00 | 0.69 | 0.00 | 59 | 981.1 |
| 20260510165507 | 13 | 335 | 4.8 | 9.7 | 0.00 | 0.69 | 0.00 | 59 | 981.1 |
| 20260510165007 | 12 | 258 | 4.8 | 9.7 | 0.00 | 0.69 | 0.00 | 60 | 981.0 |
| 20260510164507 | 13 | 280 | 4.8 | 9.7 | 0.00 | 0.69 | 0.00 | 54 | 981.0 |
| 20260510164007 | 13 | 267 | 4.8 | 9.7 | 0.00 | 0.69 | 0.00 | 53 | 981.0 |
| 20260510162508 | 13 | 64 | 4.8 | 12.9 | 0.00 | 0.69 | 0.00 | 53 | 981.3 |
| 20260510162007 | 12 | 289 | 6.4 | 12.9 | 0.00 | 0.69 | 0.00 | 49 | 981.3 |
| 20260510161507 | 12 | 333 | 6.4 | 11.3 | 0.00 | 0.69 | 0.00 | 55 | 981.3 |
| 20260510161008 | 12 | 288 | 8.0 | 11.3 | 0.00 | 0.69 | 0.00 | 59 | 981.1 |
| 20260510160007 | 12 | 338 | 4.8 | 9.7 | 0.00 | 0.69 | 0.00 | 61 | 981.0 |
| 20260510155007 | 12 | 335 | 8.0 | 14.5 | 0.00 | 0.69 | 0.00 | 59 | 980.7 |
| 20260510154507 | 12 | 2 | 4.8 | 12.9 | 0.00 | 0.69 | 0.00 | 65 | 980.7 |
| 20260510154007 | 12 | 269 | 8.0 | 12.9 | 0.00 | 0.69 | 0.00 | 66 | 980.7 |
| 20260510153507 | 11 | 319 | 9.7 | 12.9 | 0.00 | 0.69 | 0.00 | 62 | 980.6 |
| 20260510153007 | 11 | 356 | 4.8 | 11.3 | 0.00 | 0.69 | 0.00 | 67 | 980.6 |
| 20260510152507 | 11 | 304 | 6.4 | 11.3 | 0.00 | 0.69 | 0.00 | 67 | 980.6 |
| 20260510152008 | 12 | 299 | 4.8 | 9.7 | 0.00 | 0.69 | 0.00 | 65 | 980.6 |
| 20260510151507 | 12 | 304 | 4.8 | 9.7 | 0.00 | 0.69 | 0.00 | 71 | 980.6 |
| 20260510151007 | 11 | 289 | 6.4 | 9.7 | 0.00 | 0.69 | 0.00 | 69 | 980.3 |
| 20260510150508 | 11 | 13 | 4.8 | 9.7 | 0.00 | 0.69 | 0.00 | 72 | 980.3 |
| 20260510150007 | 10 | 311 | 4.8 | 9.7 | 0.00 | 0.69 | 0.00 | 74 | 980.2 |
| 20260510145507 | 10 | 259 | 4.8 | 9.7 | 0.00 | 0.69 | 0.00 | 77 | 980.2 |
| 20260510145008 | 10 | 144 | 4.8 | 8.0 | 0.00 | 0.69 | 0.00 | 79 | 980.0 |
| 20260510144508 | 9 | 322 | 1.6 | 8.0 | 0.00 | 0.69 | 0.00 | 80 | 980.0 |
| 20260510144007 | 9 | 344 | 4.8 | 8.0 | 0.00 | 0.69 | 0.00 | 78 | 980.0 |
| 20260510143508 | 9 | 292 | 4.8 | 9.7 | 0.00 | 0.69 | 0.00 | 79 | 979.9 |
| 20260510143007 | 9 | 294 | 4.8 | 11.3 | 0.00 | 0.69 | 0.00 | 80 | 979.9 |
| 20260510142507 | 8 | 358 | 8.0 | 11.3 | 0.00 | 0.69 | 0.00 | 79 | 979.8 |
| 20260510142007 | 10 | 239 | 4.8 | 14.5 | 0.00 | 0.69 | 0.00 | 81 | 979.8 |
| 20260510141507 | 9 | 329 | 4.8 | 14.5 | 0.00 | 0.69 | 0.00 | 81 | 979.7 |
| 20260510141007 | 8 | 341 | 6.4 | 8.0 | 0.00 | 0.69 | 0.00 | 81 | 979.6 |
| 20260510140507 | 8 | 300 | 4.8 | 9.7 | 0.00 | 0.69 | 0.00 | 82 | 979.6 |
| 20260510140007 | 7 | 286 | 4.8 | 9.7 | 0.00 | 0.69 | 0.00 | 84 | 979.3 |
| 20260510135008 | 8 | 299 | 3.2 | 8.0 | 0.00 | 0.69 | 0.00 | 84 | 979.4 |
| 20260510134507 | 8 | 306 | 4.8 | 9.7 | 0.00 | 0.69 | 0.00 | 82 | 979.4 |
| 20260510134007 | 8 | 338 | 4.8 | 9.7 | 0.00 | 0.69 | 0.00 | 82 | 979.4 |
| 20260510133508 | 8 | 276 | 3.2 | 9.7 | 0.00 | 0.69 | 0.00 | 84 | 978.9 |
| 20260510133007 | 8 | 311 | 4.8 | 9.7 | 0.00 | 0.69 | 0.00 | 84 | 978.9 |
| 20260510132507 | 8 | 264 | 4.8 | 9.7 | 0.00 | 0.69 | 0.00 | 83 | 978.8 |
| 20260510132007 | 8 | 348 | 4.8 | 8.0 | 0.00 | 0.69 | 0.00 | 84 | 978.8 |
| 20260510131507 | 8 | 317 | 4.8 | 8.0 | 0.00 | 0.69 | 0.00 | 85 | 978.8 |
| 20260510131007 | 7 | 230 | 3.2 | 12.9 | 0.00 | 0.69 | 0.00 | 86 | 978.7 |
| 20260510130508 | 7 | 262 | 6.4 | 12.9 | 0.00 | 0.69 | 0.00 | 87 | 978.7 |
| 20260510125008 | 6 | 280 | 4.8 | 9.7 | 0.00 | 0.69 | 0.00 | 88 | 978.3 |
| 20260510124507 | 7 | 309 | 4.8 | 9.7 | 0.00 | 0.69 | 0.00 | 87 | 978.3 |
| 20260510124007 | 6 | 316 | 3.2 | 11.3 | 0.00 | 0.69 | 0.00 | 91 | 978.3 |
| 20260510123507 | 6 | 308 | 4.8 | 11.3 | 0.00 | 0.69 | 0.00 | 88 | 978.4 |
| 20260510123007 | 6 | 290 | 4.8 | 11.3 | 0.00 | 0.69 | 0.00 | 91 | 978.4 |
| 20260510122507 | 6 | 293 | 6.4 | 11.3 | 0.00 | 0.69 | 0.00 | 89 | 978.2 |
| 20260510122007 | 6 | 234 | 4.8 | 8.0 | 0.00 | 0.69 | 0.00 | 89 | 978.2 |
| 20260510121507 | 6 | 256 | 4.8 | 4.8 | 0.00 | 0.69 | 0.00 | 90 | 978.2 |
| 20260510121007 | 6 | 292 | 1.6 | 4.8 | 0.00 | 0.69 | 0.00 | 90 | 977.9 |
| 20260510120508 | 6 | 5 | 3.2 | 8.0 | 0.00 | 0.69 | 0.00 | 91 | 977.9 |
| 20260510120007 | 5 | 2 | 3.2 | 8.0 | 0.00 | 0.69 | 0.00 | 92 | 977.7 |
| 20260510115509 | 5 | 315 | 3.2 | 9.7 | 0.00 | 0.69 | 0.00 | 91 | 977.7 |
| 20260510113507 | 4 | 180 | 4.8 | 9.7 | 0.00 | 0.69 | 0.00 | 95 | 977.2 |
| 20260510112507 | 3 | 62 | 3.2 | 11.3 | 0.00 | 0.69 | 0.00 | 98 | 977.1 |
| 20260510112007 | 3 | 295 | 3.2 | 9.7 | 0.00 | 0.69 | 0.00 | 99 | 977.1 |
| 20260510111506 | 3 | 338 | 3.2 | 9.7 | 0.00 | 0.69 | 0.00 | 99 | 977.1 |
| 20260510111007 | 3 | 303 | 1.6 | 9.7 | 0.00 | 0.69 | 0.00 | 99 | 976.8 |
| 20260510110006 | 3 | 311 | 3.2 | 9.7 | 0.00 | 0.69 | 0.00 | 99 | 976.7 |
| 20260510105506 | 3 | 263 | 3.2 | 9.7 | 0.00 | 0.69 | 0.00 | 99 | 976.7 |
| 20260510104507 | 2 | 339 | 1.6 | 4.8 | 0.00 | 0.69 | 0.00 | 99 | 976.4 |
| 20260510103008 | 2 | 282 | 3.2 | 4.8 | 0.00 | 0.69 | 0.00 | 99 | 976.4 |
| 20260510102508 | 2 | 281 | 1.6 | 4.8 | 0.00 | 0.69 | 0.00 | 99 | 976.1 |
| 20260510102009 | 2 | 236 | 1.6 | 3.2 | 0.00 | 0.69 | 0.00 | 99 | 976.1 |
| 20260510101508 | 2 | 264 | 0.0 | 3.2 | 0.00 | 0.69 | 0.00 | 99 | 976.1 |
| 20260510101009 | 2 | 116 | 0.0 | 3.2 | 0.00 | 0.69 | 0.00 | 99 | 976.1 |
| 20260510100509 | 2 | 248 | 0.0 | 3.2 | 0.00 | 0.69 | 0.00 | 99 | 976.1 |
| 20260510095509 | 2 | 267 | 1.6 | 8.0 | 0.00 | 0.69 | 0.00 | 99 | 975.8 |
| 20260510095009 | 2 | 294 | 3.2 | 8.0 | 0.00 | 0.69 | 0.00 | 99 | 975.6 |
| 20260510094509 | 2 | 303 | 1.6 | 4.8 | 0.00 | 0.69 | 0.00 | 99 | 975.6 |
| 20260510094008 | 2 | 304 | 3.2 | 4.8 | 0.00 | 0.69 | 0.00 | 99 | 975.6 |
| 20260510093508 | 2 | 203 | 3.2 | 4.8 | 0.00 | 0.69 | 0.00 | 99 | 975.7 |
| 20260510093008 | 2 | 315 | 3.2 | 4.8 | 0.00 | 0.69 | 0.00 | 99 | 975.7 |
| 20260510092008 | 2 | 217 | 1.6 | 8.0 | 0.00 | 0.69 | 0.00 | 99 | 975.4 |
| 20260510091508 | 2 | 305 | 0.0 | 9.7 | 0.00 | 0.69 | 0.00 | 99 | 975.4 |
| 20260510091008 | 2 | 66 | 1.6 | 9.7 | 0.00 | 0.69 | 0.00 | 99 | 975.4 |
| 20260510090509 | 2 | 302 | 4.8 | 9.7 | 0.00 | 0.69 | 0.00 | 99 | 975.4 |
| 20260510085508 | 2 | 147 | 3.2 | 8.0 | 0.00 | 0.69 | 0.00 | 99 | 975.1 |
| 20260510085009 | 2 | 292 | 3.2 | 8.0 | 0.00 | 0.69 | 0.00 | 99 | 974.9 |
| 20260510084508 | 2 | 36 | 3.2 | 9.7 | 0.00 | 0.69 | 0.00 | 99 | 974.9 |
| 20260510084008 | 2 | 284 | 3.2 | 9.7 | 0.00 | 0.69 | 0.00 | 99 | 974.9 |
| 20260510083509 | 2 | 266 | 3.2 | 9.7 | 0.00 | 0.69 | 0.00 | 99 | 974.9 |
| 20260510082508 | 2 | 126 | 1.6 | 9.7 | 0.00 | 0.69 | 0.00 | 99 | 974.6 |
| 20260510082008 | 2 | 26 | 1.6 | 4.8 | 0.00 | 0.69 | 0.00 | 99 | 974.6 |
| 20260510081008 | 2 | 15 | 3.2 | 8.0 | 0.00 | 0.69 | 0.00 | 99 | 974.8 |
| 20260510080009 | 2 | 275 | 3.2 | 9.7 | 0.00 | 0.69 | 0.00 | 99 | 974.6 |
| 20260510075009 | 2 | 235 | 1.6 | 4.8 | 0.00 | 0.69 | 0.00 | 99 | 974.5 |
| 20260510074508 | 2 | 141 | 3.2 | 4.8 | 0.00 | 0.69 | 0.00 | 99 | 974.5 |
| 20260510074008 | 2 | 8 | 3.2 | 8.0 | 0.00 | 0.69 | 0.00 | 99 | 974.5 |
| 20260510073509 | 2 | 74 | 1.6 | 8.0 | 0.00 | 0.69 | 0.00 | 99 | 974.5 |
| 20260510072509 | 2 | 260 | 4.8 | 9.7 | 0.00 | 0.69 | 0.00 | 99 | 974.5 |
| 20260510072008 | 2 | 257 | 3.2 | 9.7 | 0.00 | 0.69 | 0.00 | 99 | 974.5 |
| 20260510070508 | 3 | 222 | 1.6 | 4.8 | 0.00 | 0.69 | 0.00 | 99 | 974.0 |
| 20260510065509 | 3 | 285 | 1.6 | 4.8 | 0.00 | 0.69 | 0.00 | 99 | 974.0 |
| 20260510064508 | 3 | 247 | 3.2 | 9.7 | 0.00 | 0.69 | 0.00 | 99 | 973.9 |
| 20260510064008 | 3 | 260 | 4.8 | 9.7 | 0.00 | 0.69 | 0.00 | 98 | 973.9 |
| 20260510063008 | 3 | 230 | 3.2 | 8.0 | 0.00 | 0.69 | 0.00 | 98 | 973.7 |
| 20260510062008 | 3 | 292 | 3.2 | 9.7 | 0.00 | 0.69 | 0.00 | 98 | 973.7 |
| 20260510061508 | 3 | 270 | 1.6 | 8.0 | 0.00 | 0.69 | 0.00 | 97 | 973.7 |
| 20260510061009 | 3 | 126 | 3.2 | 8.0 | 0.00 | 0.69 | 0.00 | 97 | 973.7 |
| 20260510055508 | 3 | 285 | 4.8 | 9.7 | 0.00 | 0.69 | 0.00 | 96 | 973.6 |
| 20260510055008 | 3 | 270 | 4.8 | 9.7 | 0.00 | 0.69 | 0.00 | 96 | 973.3 |
| 20260510054508 | 3 | 249 | 3.2 | 8.0 | 0.00 | 0.69 | 0.00 | 96 | 973.3 |
| 20260510054008 | 3 | 301 | 3.2 | 8.0 | 0.00 | 0.69 | 0.00 | 96 | 973.3 |
| 20260510053008 | 3 | 214 | 1.6 | 11.3 | 0.00 | 0.69 | 0.00 | 96 | 973.3 |
| 20260510051008 | 4 | 349 | 1.6 | 4.8 | 0.00 | 0.69 | 0.00 | 96 | 972.9 |
| 20260510050509 | 4 | 158 | 0.0 | 9.7 | 0.00 | 0.69 | 0.00 | 96 | 972.9 |
| 20260510050008 | 4 | 46 | 4.8 | 9.7 | 0.00 | 0.69 | 0.00 | 96 | 972.7 |
| 20260510045509 | 4 | 218 | 1.6 | 8.0 | 0.00 | 0.69 | 0.00 | 96 | 972.7 |
| 20260510045008 | 4 | 285 | 0.0 | 8.0 | 0.00 | 0.69 | 0.00 | 96 | 972.4 |
| 20260510044509 | 5 | 127 | 0.0 | 4.8 | 0.00 | 0.69 | 0.00 | 95 | 972.4 |
| 20260510044008 | 5 | 172 | 1.6 | 4.8 | 0.00 | 0.69 | 0.00 | 94 | 972.4 |
| 20260510043508 | 5 | 246 | 3.2 | 8.0 | 0.00 | 0.69 | 0.00 | 95 | 972.4 |
| 20260510043008 | 5 | 234 | 3.2 | 9.7 | 0.00 | 0.69 | 0.00 | 95 | 972.4 |
| 20260510042509 | 5 | 77 | 4.8 | 9.7 | 0.00 | 0.69 | 0.00 | 95 | 972.0 |
| 20260510042008 | 5 | 214 | 3.2 | 8.0 | 0.00 | 0.69 | 0.00 | 96 | 972.0 |
| 20260510041508 | 5 | 160 | 0.0 | 8.0 | 0.00 | 0.69 | 0.00 | 96 | 972.0 |
| 20260510041008 | 5 | 255 | 1.6 | 8.0 | 0.00 | 0.69 | 0.00 | 96 | 971.9 |
| 20260510040509 | 5 | 146 | 3.2 | 9.7 | 0.00 | 0.69 | 0.00 | 97 | 971.9 |
| 20260510040008 | 5 | 262 | 1.6 | 9.7 | 0.00 | 0.69 | 0.00 | 98 | 971.8 |
| 20260510035508 | 5 | 270 | 3.2 | 9.7 | 0.00 | 0.69 | 0.69 | 98 | 971.8 |
| 20260510035008 | 5 | 264 | 1.6 | 9.7 | 0.00 | 0.69 | 0.69 | 98 | 972.0 |
| 20260510034508 | 5 | 294 | 4.8 | 9.7 | 0.00 | 0.69 | 0.69 | 99 | 972.0 |
| 20260510034008 | 6 | 202 | 3.2 | 11.3 | 0.00 | 0.69 | 0.69 | 99 | 972.0 |
| 20260510033509 | 6 | 216 | 3.2 | 11.3 | 0.00 | 0.69 | 0.69 | 99 | 971.7 |
| 20260510032508 | 6 | 275 | 3.2 | 12.9 | 0.00 | 0.69 | 0.69 | 99 | 971.8 |
| 20260510032009 | 6 | 260 | 4.8 | 12.9 | 0.00 | 0.69 | 0.69 | 99 | 971.8 |
| 20260510031508 | 6 | 227 | 3.2 | 8.0 | 0.00 | 0.69 | 0.69 | 99 | 971.8 |
| 20260510031008 | 6 | 242 | 1.6 | 8.0 | 0.00 | 0.69 | 0.69 | 99 | 971.7 |
| 20260510030508 | 6 | 265 | 3.2 | 8.0 | 0.00 | 0.69 | 0.69 | 99 | 971.7 |
| 20260510030008 | 6 | 163 | 1.6 | 8.0 | 0.00 | 0.69 | 0.69 | 99 | 971.6 |
| 20260510025508 | 6 | 292 | 3.2 | 9.7 | 0.00 | 0.69 | 0.69 | 99 | 971.6 |
| 20260510024509 | 6 | 253 | 1.6 | 8.0 | 0.00 | 0.69 | 0.69 | 99 | 971.3 |
| 20260510024008 | 6 | 193 | 1.6 | 8.0 | 0.00 | 0.69 | 0.69 | 99 | 971.3 |
| 20260510023509 | 6 | 235 | 0.0 | 3.2 | 0.00 | 0.69 | 0.69 | 99 | 971.2 |
| 20260510022508 | 6 | 203 | 1.6 | 8.0 | 0.00 | 0.69 | 0.69 | 99 | 971.1 |
| 20260510022008 | 6 | 210 | 3.2 | 4.8 | 0.00 | 0.69 | 0.69 | 99 | 971.1 |
| 20260510021008 | 6 | 209 | 0.0 | 3.2 | 0.00 | 0.69 | 0.69 | 99 | 970.7 |
| 20260510020508 | 6 | 194 | 0.0 | 3.2 | 0.00 | 0.69 | 0.69 | 99 | 970.7 |
| 20260510020008 | 7 | 226 | 1.6 | 3.2 | 0.00 | 0.69 | 0.69 | 99 | 970.7 |
| 20260510015508 | 7 | 201 | 0.0 | 3.2 | 0.00 | 0.69 | 0.69 | 99 | 970.7 |
| 20260510014508 | 7 | 225 | 1.6 | 4.8 | 0.00 | 0.69 | 0.69 | 99 | 970.5 |
| 20260510014008 | 7 | 204 | 0.0 | 4.8 | 0.00 | 0.69 | 0.69 | 99 | 970.5 |
| 20260510013008 | 7 | 269 | 1.6 | 3.2 | 0.00 | 0.69 | 0.69 | 99 | 970.2 |
| 20260510012508 | 7 | 228 | 1.6 | 3.2 | 0.00 | 0.69 | 0.69 | 99 | 969.7 |
| 20260510011508 | 8 | 202 | 3.2 | 3.2 | 0.00 | 0.69 | 0.69 | 99 | 969.7 |
| 20260510011008 | 8 | 202 | 0.0 | 1.6 | 0.00 | 0.69 | 0.69 | 99 | 969.7 |
| 20260510010508 | 8 | 182 | 0.0 | 4.8 | 0.00 | 0.69 | 0.69 | 99 | 969.7 |
| 20260510010008 | 8 | 219 | 1.6 | 8.0 | 0.03 | 0.69 | 0.69 | 99 | 969.5 |
| 20260510005508 | 9 | 285 | 3.2 | 8.0 | 0.03 | 0.69 | 0.69 | 99 | 969.5 |
| 20260510005008 | 9 | 177 | 1.6 | 3.2 | 0.03 | 0.69 | 0.69 | 99 | 969.2 |
| 20260510004507 | 10 | 270 | 0.0 | 4.8 | 0.03 | 0.69 | 0.69 | 99 | 969.2 |
| 20260510004008 | 10 | 211 | 1.6 | 4.8 | 0.03 | 0.69 | 0.69 | 99 | 969.2 |
| 20260510003508 | 10 | 192 | 0.0 | 1.6 | 0.03 | 0.69 | 0.69 | 99 | 969.1 |
| 20260510003008 | 10 | 189 | 0.0 | 3.2 | 0.03 | 0.69 | 0.69 | 99 | 969.1 |
| 20260510002508 | 10 | 276 | 1.6 | 11.3 | 0.03 | 0.69 | 0.69 | 99 | 968.9 |
| 20260510001508 | 10 | 274 | 1.6 | 11.3 | 0.03 | 0.69 | 0.69 | 99 | 968.9 |
| 20260510001008 | 10 | 350 | 1.6 | 9.7 | 0.03 | 0.69 | 0.69 | 99 | 968.5 |
| 20260510000008 | 10 | 189 | 4.8 | 9.7 | 0.00 | 0.66 | 0.66 | 99 | 968.2 |
| 20260509235508 | 10 | 181 | 3.2 | 8.0 | 0.00 | 0.66 | 0.66 | 99 | 968.2 |
| 20260509235008 | 10 | 174 | 4.8 | 9.7 | 0.00 | 0.66 | 0.66 | 99 | 968.1 |
| 20260509234008 | 10 | 169 | 4.8 | 9.7 | 0.00 | 0.66 | 0.66 | 99 | 968.1 |
| 20260509233508 | 10 | 181 | 3.2 | 9.7 | 0.00 | 0.66 | 0.66 | 99 | 968.0 |
| 20260509232007 | 10 | 174 | 4.8 | 9.7 | 0.00 | 0.66 | 0.66 | 99 | 968.0 |
| 20260509231508 | 10 | 148 | 6.4 | 11.3 | 0.03 | 0.66 | 0.66 | 99 | 968.0 |
| 20260509231008 | 10 | 152 | 4.8 | 11.3 | 0.05 | 0.66 | 0.66 | 99 | 968.0 |
| 20260509230508 | 10 | 186 | 8.0 | 9.7 | 0.08 | 0.66 | 0.66 | 99 | 968.0 |
| 20260509230008 | 10 | 179 | 3.2 | 8.0 | 0.13 | 0.66 | 0.66 | 99 | 967.7 |
| 20260509225008 | 10 | 163 | 3.2 | 8.0 | 0.18 | 0.66 | 0.66 | 99 | 967.6 |
| 20260509224508 | 10 | 178 | 4.8 | 11.3 | 0.20 | 0.66 | 0.66 | 99 | 967.6 |
| 20260509224009 | 10 | 189 | 6.4 | 11.3 | 0.28 | 0.66 | 0.66 | 99 | 967.6 |
| 20260509223508 | 10 | 184 | 4.8 | 11.3 | 0.41 | 0.66 | 0.66 | 99 | 967.6 |
| 20260509223008 | 10 | 148 | 4.8 | 9.7 | 0.46 | 0.66 | 0.66 | 99 | 967.6 |
| 20260509222508 | 10 | 197 | 4.8 | 11.3 | 0.53 | 0.66 | 0.66 | 99 | 967.9 |
| 20260509222008 | 10 | 232 | 4.8 | 11.3 | 0.58 | 0.66 | 0.66 | 99 | 967.9 |
| 20260509221008 | 10 | 171 | 4.8 | 9.7 | 0.61 | 0.61 | 0.61 | 99 | 968.2 |
| 20260509220008 | 10 | 188 | 4.8 | 12.9 | 0.53 | 0.53 | 0.53 | 99 | 968.4 |
| 20260509215507 | 11 | 267 | 8.0 | 12.9 | 0.48 | 0.48 | 0.48 | 99 | 968.4 |
| 20260509215008 | 11 | 243 | 3.2 | 11.3 | 0.48 | 0.48 | 0.48 | 99 | 968.3 |
| 20260509214008 | 11 | 161 | 9.7 | 25.7 | 0.38 | 0.38 | 0.38 | 99 | 968.3 |
| 20260509213508 | 11 | 150 | 14.5 | 25.7 | 0.25 | 0.25 | 0.25 | 99 | 967.6 |
| 20260509213008 | 11 | 168 | 8.0 | 16.1 | 0.20 | 0.20 | 0.20 | 99 | 967.6 |
| 20260509212508 | 12 | 236 | 11.3 | 16.1 | 0.13 | 0.13 | 0.13 | 98 | 967.2 |
| 20260509212008 | 12 | 149 | 8.0 | 16.1 | 0.08 | 0.08 | 0.08 | 97 | 967.2 |
| 20260509211508 | 12 | 188 | 11.3 | 19.3 | 0.03 | 0.03 | 0.03 | 94 | 967.2 |
| 20260509210507 | 13 | 158 | 12.9 | 19.3 | 0.00 | 0.00 | 0.00 | 89 | 967.0 |
| 20260509210008 | 13 | 186 | 12.9 | 22.5 | 0.00 | 0.00 | 0.00 | 85 | 966.7 |
| 20260509205508 | 14 | 174 | 11.3 | 22.5 | 0.00 | 0.00 | 0.00 | 83 | 966.7 |
| 20260509205008 | 15 | 156 | 14.5 | 19.3 | 0.00 | 0.00 | 0.00 | 81 | 966.4 |
| 20260509204508 | 15 | 171 | 14.5 | 19.3 | 0.00 | 0.00 | 0.00 | 80 | 966.4 |
| 20260509203508 | 15 | 167 | 11.3 | 20.9 | 0.00 | 0.00 | 0.00 | 80 | 966.4 |
| 20260509203008 | 15 | 150 | 14.5 | 22.5 | 0.00 | 0.00 | 0.00 | 79 | 966.4 |
| 20260509202508 | 16 | 124 | 12.9 | 22.5 | 0.00 | 0.00 | 0.00 | 78 | 966.6 |
| 20260509202008 | 16 | 170 | 11.3 | 25.7 | 0.00 | 0.00 | 0.00 | 77 | 966.6 |
| 20260509201508 | 16 | 130 | 16.1 | 25.7 | 0.00 | 0.00 | 0.00 | 77 | 966.7 |
| 20260509201008 | 16 | 145 | 11.3 | 19.3 | 0.00 | 0.00 | 0.00 | 77 | 966.8 |
| 20260509195507 | 16 | 145 | 9.7 | 16.1 | 0.00 | 0.00 | 0.00 | 76 | 967.2 |
| 20260509194507 | 16 | 167 | 11.3 | 16.1 | 0.00 | 0.00 | 0.00 | 76 | 967.2 |
| 20260509194008 | 16 | 124 | 9.7 | 16.1 | 0.00 | 0.00 | 0.00 | 75 | 967.2 |
| 20260509193507 | 16 | 139 | 11.3 | 16.1 | 0.00 | 0.00 | 0.00 | 75 | 967.3 |
| 20260509193007 | 16 | 171 | 11.3 | 16.1 | 0.00 | 0.00 | 0.00 | 74 | 967.3 |
| 20260509192008 | 15 | 158 | 9.7 | 14.5 | 0.00 | 0.00 | 0.00 | 76 | 967.4 |
| 20260509191508 | 15 | 58 | 9.7 | 14.5 | 0.00 | 0.00 | 0.00 | 76 | 967.4 |
| 20260509191007 | 15 | 164 | 9.7 | 14.5 | 0.00 | 0.00 | 0.00 | 77 | 967.5 |
| 20260509190507 | 15 | 180 | 9.7 | 14.5 | 0.00 | 0.00 | 0.00 | 77 | 967.5 |
| 20260509190007 | 15 | 132 | 9.7 | 12.9 | 0.00 | 0.00 | 0.00 | 77 | 967.8 |
| 20260509185007 | 15 | 180 | 9.7 | 12.9 | 0.00 | 0.00 | 0.00 | 78 | 967.9 |
| 20260509184507 | 15 | 171 | 6.4 | 12.9 | 0.00 | 0.00 | 0.00 | 77 | 967.9 |
| 20260509184008 | 15 | 157 | 9.7 | 12.9 | 0.00 | 0.00 | 0.00 | 77 | 967.9 |
| 20260509183507 | 15 | 152 | 8.0 | 12.9 | 0.00 | 0.00 | 0.00 | 77 | 968.1 |
| 20260509183007 | 15 | 158 | 8.0 | 14.5 | 0.00 | 0.00 | 0.00 | 77 | 968.1 |
| 20260509182507 | 15 | 188 | 9.7 | 14.5 | 0.00 | 0.00 | 0.00 | 77 | 968.2 |
| 20260509182007 | 15 | 136 | 9.7 | 14.5 | 0.00 | 0.00 | 0.00 | 77 | 968.2 |
| 20260509181507 | 15 | 138 | 11.3 | 16.1 | 0.00 | 0.00 | 0.00 | 78 | 968.3 |
| 20260509181008 | 15 | 167 | 11.3 | 16.1 | 0.00 | 0.00 | 0.00 | 77 | 968.5 |
| 20260509180507 | 16 | 145 | 9.7 | 16.1 | 0.00 | 0.00 | 0.00 | 75 | 968.5 |